When you browse on this site, cookies collect data to enhance your experience and personalize the content and advertising you see.
Visit our Privacy Policy to learn more. By continuing to use the site, you agree to this use of cookies and data.
  • In Sweden
  • List of Countries
  • For 7 days
  • Water Temperature
  • Weather Map
  • Weather Widgets
  • user-avatar
    Login

    Hourly Weather Dunedin

    Today, 26 May, Tuesday

    Time Temperature Precipitation Wind Pressure Humidity
    00:00 +5°C° 0 mm 4 mps 752 mmHg 95%
    01:00 +5°C° 0 mm 4 mps 752 mmHg 95%
    02:00 +5°C° 0 mm 4 mps 752 mmHg 95%
    03:00 +5°C° 0 mm 4 mps 753 mmHg 95%
    04:00 +5°C° 0 mm 4 mps 753 mmHg 95%
    05:00 +4°C° 0 mm 3 mps 753 mmHg 92%
    06:00 +5°C° 0 mm 3 mps 754 mmHg 89%
    07:00 +7°C° 0 mm 3 mps 754 mmHg 86%
    08:00 +8°C° 0 mm 3 mps 755 mmHg 83%
    09:00 +8°C° 0 mm 4 mps 755 mmHg 79%
    10:00 +10°C° 0 mm 4 mps 755 mmHg 76%
    11:00 +10°C° 0 mm 5 mps 755 mmHg 72%
    12:00 +11°C° 0 mm 4 mps 755 mmHg 71%
    13:00 +11°C° 0 mm 4 mps 755 mmHg 70%
    14:00 +11°C° 0 mm 4 mps 755 mmHg 68%
    15:00 +10°C° 0 mm 3 mps 755 mmHg 75%
    16:00 +8°C° 0 mm 3 mps 756 mmHg 82%
    17:00 +7°C° 0 mm 3 mps 756 mmHg 88%
    18:00 +7°C° 0 mm 3 mps 757 mmHg 89%
    19:00 +5°C° 0 mm 3 mps 757 mmHg 90%
    20:00 +5°C° 0 mm 3 mps 757 mmHg 91%
    21:00 +5°C° 0 mm 3 mps 757 mmHg 90%
    22:00 +5°C° 0 mm 3 mps 757 mmHg 90%
    23:00 +6°C° 0 mm 2 mps 757 mmHg 89%

    Tomorrow, 27 May, Wednesday

    Time Temperature Precipitation Wind Pressure Humidity
    00:00 +6°C° 0 mm 2 mps 757 mmHg 89%
    01:00 +5°C° 0 mm 2 mps 757 mmHg 88%
    02:00 +5°C° 0 mm 2 mps 757 mmHg 87%
    03:00 +5°C° 0 mm 2 mps 757 mmHg 86%
    04:00 +5°C° 0 mm 2 mps 758 mmHg 86%
    05:00 +5°C° 0 mm 2 mps 758 mmHg 85%
    06:00 +6°C° 0 mm 2 mps 758 mmHg 83%
    07:00 +6°C° 0 mm 2 mps 758 mmHg 81%
    08:00 +6°C° 0 mm 2 mps 758 mmHg 79%
    09:00 +8°C° 0 mm 2 mps 758 mmHg 73%
    10:00 +12°C° 0 mm 2 mps 758 mmHg 66%
    11:00 +14°C° 0 mm 1 mps 758 mmHg 60%
    12:00 +14°C° 0 mm 2 mps 757 mmHg 63%
    13:00 +14°C° 0 mm 2 mps 757 mmHg 65%
    14:00 +14°C° 0 mm 2 mps 756 mmHg 68%
    15:00 +12°C° 0 mm 2 mps 756 mmHg 77%
    16:00 +8°C° 0 mm 2 mps 756 mmHg 87%
    17:00 +6°C° 0 mm 2 mps 757 mmHg 96%
    18:00 +7°C° 0 mm 1 mps 757 mmHg 96%
    19:00 +7°C° 0 mm 1 mps 757 mmHg 96%
    20:00 +7°C° 0 mm 1 mps 757 mmHg 96%
    21:00 +7°C° 0 mm 1 mps 757 mmHg 96%
    22:00 +7°C° 0 mm 1 mps 757 mmHg 96%
    23:00 +6°C° 0 mm 1 mps 757 mmHg 95%

    Day after tomorrow, 28 May, Thursday

    Time Temperature Precipitation Wind Pressure Humidity
    00:00 +6°C° 0 mm 1 mps 757 mmHg 95%
    01:00 +6°C° 0 mm 1 mps 757 mmHg 95%
    02:00 +6°C° 0 mm 1 mps 756 mmHg 95%
    03:00 +6°C° 0 mm 1 mps 756 mmHg 95%
    04:00 +6°C° 0 mm 1 mps 756 mmHg 94%
    05:00 +6°C° 0 mm 1 mps 756 mmHg 94%
    06:00 +6°C° 0 mm 1 mps 756 mmHg 93%
    07:00 +6°C° 0 mm 1 mps 756 mmHg 93%
    08:00 +6°C° 0 mm 1 mps 756 mmHg 92%
    09:00 +8°C° 0 mm 1 mps 756 mmHg 85%
    10:00 +9°C° 0 mm 2 mps 756 mmHg 79%
    11:00 +10°C° 0 mm 2 mps 755 mmHg 72%
    12:00 +12°C° 0 mm 2 mps 755 mmHg 72%
    13:00 +12°C° 0 mm 2 mps 754 mmHg 72%
    14:00 +12°C° 0 mm 2 mps 754 mmHg 72%
    15:00 +9°C° 0 mm 2 mps 754 mmHg 80%
    16:00 +8°C° 0 mm 2 mps 754 mmHg 88%
    17:00 +6°C° 0 mm 2 mps 754 mmHg 96%
    18:00 +6°C° 0 mm 2 mps 754 mmHg 96%
    19:00 +7°C° 0 mm 1 mps 754 mmHg 96%
    20:00 +7°C° 0 mm 1 mps 754 mmHg 96%
    21:00 +7°C° 0 mm 1 mps 754 mmHg 96%
    22:00 +7°C° 0 mm 1 mps 754 mmHg 96%
    23:00 +7°C° 0 mm 1 mps 754 mmHg 95%

    29 May, Friday

    Time Temperature Precipitation Wind Pressure Humidity
    00:00 +7°C° 0 mm 1 mps 753 mmHg 95%
    01:00 +6°C° 0 mm 1 mps 753 mmHg 95%
    02:00 +6°C° 0 mm 1 mps 753 mmHg 95%
    03:00 +6°C° 0 mm 1 mps 753 mmHg 94%
    04:00 +6°C° 0 mm 1 mps 753 mmHg 94%
    05:00 +6°C° 0 mm 1 mps 752 mmHg 93%
    06:00 +6°C° 0 mm 1 mps 752 mmHg 91%
    07:00 +7°C° 0 mm 1 mps 753 mmHg 89%
    08:00 +7°C° 0 mm 1 mps 753 mmHg 87%
    09:00 +9°C° 0 mm 1 mps 753 mmHg 79%
    10:00 +11°C° 0 mm 1 mps 753 mmHg 71%
    11:00 +13°C° 0 mm 1 mps 753 mmHg 62%
    12:00 +13°C° 0 mm 1 mps 753 mmHg 62%
    13:00 +14°C° 0 mm 1 mps 752 mmHg 62%
    14:00 +14°C° 0 mm 2 mps 752 mmHg 61%
    15:00 +12°C° 0 mm 2 mps 753 mmHg 70%
    16:00 +11°C° 0 mm 1 mps 753 mmHg 78%
    17:00 +9°C° 0 mm 1 mps 753 mmHg 87%
    18:00 +9°C° 0 mm 1 mps 754 mmHg 87%
    19:00 +7°C° 0 mm 2 mps 754 mmHg 86%
    20:00 +7°C° 0 mm 2 mps 755 mmHg 86%
    21:00 +7°C° 0 mm 2 mps 755 mmHg 85%
    22:00 +6°C° 0 mm 2 mps 756 mmHg 83%
    23:00 +6°C° 0 mm 2 mps 756 mmHg 81%

    30 May, Saturday

    Time Temperature Precipitation Wind Pressure Humidity
    00:00 +6°C° 0 mm 2 mps 756 mmHg 81%
    01:00 +6°C° 0 mm 2 mps 757 mmHg 81%
    02:00 +6°C° 0 mm 2 mps 757 mmHg 81%
    03:00 +7°C° 0 mm 1 mps 757 mmHg 81%
    04:00 +6°C° 0 mm 1 mps 757 mmHg 81%
    05:00 +6°C° 0 mm 1 mps 757 mmHg 82%
    06:00 +6°C° 0 mm 1 mps 758 mmHg 81%
    07:00 +7°C° 0 mm 1 mps 759 mmHg 80%
    08:00 +7°C° 0 mm 1 mps 759 mmHg 79%
    09:00 +9°C° 0 mm 1 mps 759 mmHg 73%
    10:00 +10°C° 0 mm 2 mps 759 mmHg 67%
    11:00 +13°C° 0 mm 2 mps 759 mmHg 60%
    12:00 +13°C° 0 mm 2 mps 759 mmHg 61%
    13:00 +12°C° 0 mm 3 mps 759 mmHg 62%
    14:00 +13°C° 0 mm 3 mps 758 mmHg 63%
    15:00 +11°C° 0 mm 3 mps 759 mmHg 71%
    16:00 +9°C° 0 mm 3 mps 759 mmHg 80%
    17:00 +7°C° 0 mm 3 mps 759 mmHg 89%
    18:00 +7°C° 0 mm 2 mps 759 mmHg 87%
    19:00 +6°C° 0 mm 2 mps 759 mmHg 85%
    20:00 +6°C° 0 mm 2 mps 760 mmHg 83%
    21:00 +7°C° 0 mm 1 mps 760 mmHg 81%
    22:00 +7°C° 0 mm 1 mps 760 mmHg 80%
    23:00 +6°C° 0 mm 1 mps 760 mmHg 79%

    31 May, Sunday

    Time Temperature Precipitation Wind Pressure Humidity
    00:00 +6°C° 0 mm 1 mps 760 mmHg 79%
    01:00 +6°C° 0 mm 1 mps 760 mmHg 78%
    02:00 +6°C° 0 mm 1 mps 760 mmHg 78%
    03:00 +5°C° 0 mm 1 mps 760 mmHg 78%
    04:00 +5°C° 0 mm 1 mps 760 mmHg 79%
    05:00 +5°C° 0 mm 1 mps 760 mmHg 79%
    06:00 +5°C° 0 mm 1 mps 760 mmHg 77%
    07:00 +5°C° 0 mm 1 mps 760 mmHg 76%
    08:00 +6°C° 0 mm 1 mps 761 mmHg 74%
    09:00 +8°C° 0 mm 1 mps 760 mmHg 67%
    10:00 +10°C° 0 mm 1 mps 760 mmHg 61%
    11:00 +12°C° 0 mm 1 mps 760 mmHg 54%
    12:00 +12°C° 0 mm 2 mps 759 mmHg 56%
    13:00 +11°C° 0 mm 3 mps 759 mmHg 59%
    14:00 +11°C° 0 mm 4 mps 758 mmHg 61%
    15:00 +8°C° 0 mm 4 mps 758 mmHg 71%
    16:00 +6°C° 0 mm 4 mps 758 mmHg 82%
    17:00 +4°C° 0 mm 4 mps 758 mmHg 92%
    18:00 +4°C° 0 mm 4 mps 758 mmHg 92%
    19:00 +4°C° 0 mm 4 mps 758 mmHg 91%
    20:00 +3°C° 0 mm 4 mps 758 mmHg 91%
    21:00 +3°C° 0 mm 4 mps 758 mmHg 89%
    22:00 +3°C° 0 mm 3 mps 758 mmHg 88%
    23:00 +3°C° 0 mm 3 mps 757 mmHg 86%
    Show more